This is the latest recevied weather packets stored in our database for station/object EA1JAO-11. If no packets are shown the sender has not sent any weather packets the latest 10 day(s).
| Time | Temp. | Humidity | Pressure | Rain* | Wind** | Luminosity | Snow |
|---|---|---|---|---|---|---|---|
| 1777700180 | 12.78° C | 99% | 1015.2 hPa | - | - | - | - |
| 1777698380 | 12.78° C | 98% | 1015.2 hPa | - | - | - | - |
| 1777696580 | 12.78° C | 98% | 1015.1 hPa | - | - | - | - |
| 1777694780 | 12.78° C | 98% | 1015.3 hPa | - | - | - | - |
| 1777691180 | 13.89° C | 98% | 1015.4 hPa | - | - | - | - |
| 1777689380 | 13.89° C | 97% | 1015.5 hPa | - | - | - | - |
| 1777687579 | 15° C | 98% | 1015.5 hPa | - | - | - | - |
| 1777685779 | 15° C | 97% | 1016 hPa | - | - | - | - |
| 1777683979 | 15° C | 96% | 1016.4 hPa | - | - | - | - |
| 1777682183 | 15° C | 97% | 1016.8 hPa | - | - | - | - |
| 1777680382 | 15° C | 97% | 1016.8 hPa | - | - | - | - |
| 1777678582 | 15.56° C | 95% | 1017.4 hPa | - | - | - | - |
| 1777676782 | 15.56° C | 90% | 1017.5 hPa | - | - | - | - |
| 1777674982 | 16.67° C | 84% | 1017.2 hPa | - | - | - | - |
| 1777673182 | 16.11° C | 84% | 1017.4 hPa | - | - | - | - |
| 1777671382 | 16.67° C | 83% | 1017.5 hPa | - | - | - | - |
| 1777669582 | 16.67° C | 82% | 1017.6 hPa | - | - | - | - |
| 1777667782 | 16.67° C | 79% | 1017.6 hPa | - | - | - | - |
| 1777665982 | 16.67° C | 78% | 1017.2 hPa | - | - | - | - |
| 1777664182 | 17.22° C | 79% | 1017.1 hPa | - | - | - | - |
| 1777662382 | 17.78° C | 72% | 1017.2 hPa | - | - | - | - |
| 1777660583 | 18.33° C | 74% | 1017.1 hPa | - | - | - | - |
| 1777659660 | 18.33° C | 76% | 1017 hPa | - | - | - | - |
| 1777658781 | 18.33° C | 76% | 1017 hPa | - | - | - | - |
| 1777656981 | 20° C | 70% | 1016.9 hPa | - | - | - | - |
* Rain since midnight (hover to see other rain measurements)
** Current wind speed in m/s (hover to see current wind gust speed)